Miscellaneous Local Product
Issued by NWS Hastings, NE

Home | Current Version | Previous Version | Text Only | Print | Product List | Glossary On
Versions: 1 2 3 4 5 6 7 8 9 10 11 12 13 14 15 16 17 18 19 20 21 22 23 24 25 26 27 28 29 30 31 32 33 34 35 36 37 38 39 40 41 42 43 44 45 46 47 48 49 50
000
AXUS43 KGID 052202
MISGRI

GID CWA HOURLY WEATHER ROUNDUP
NATIONAL WEATHER SERVICE HASTINGS NE
500 PM CDT SUN JUL 05 2015

NOTE: "FAIR" INDICATES FEW OR NO CLOUDS BELOW 12,000 FEET WITH NO
SIGNIFICANT WEATHER AND/OR OBSTRUCTIONS TO VISIBILITY.

...SOUTH CENTRAL NEBRASKA...

CITY           SKY/WX    TMP DP  RH WIND       PRES   REMARKS
GRAND ISLAND   SUNNY     95  73  48 SE14G22   29.76F HX 104
HASTINGS       SUNNY     97  68  38 S18G25    29.75F HX 102
KEARNEY        SUNNY     99  70  39 SE14      29.74F HX 105
ORD            MOSUNNY   94  70  45 S14G21    29.75F HX 100
YORK           SUNNY     91  73  55 S17       29.78F HX 100
AURORA         SUNNY     94  73  50 SE15      29.76F HX 102
LEXINGTON      SUNNY     99  64  32 S9        29.74F HX 101
HOLDREGE       SUNNY     99  62  29 SW10G21   29.75F HX 100
HEBRON         SUNNY     95  64  36 S17G24    29.78F HX  97

...NEBRASKA PANHANDLE...

CITY           SKY/WX    TMP DP  RH WIND       PRES   REMARKS
CHADRON        PTSUNNY   86  67  52 N20G33    29.85R
ALLIANCE       PTSUNNY   85  64  49 N13       29.83R
SCOTTSBLUFF    CLOUDY    84  64  50 N20G29    29.86R
SIDNEY         CLOUDY    90  58  33 NW8       29.86S

...WESTERN AND NORTH CENTRAL NEBRASKA...

CITY           SKY/WX    TMP DP  RH WIND       PRES   REMARKS
VALENTINE      MOSUNNY   94  65  38 SE9       29.75F HX  96
AINSWORTH      MOSUNNY   93  69  44 S13G18    29.76F HX  98
ONEILL         MOSUNNY   90  73  57 S13       29.78S HX  98
BROKEN BOW     MOSUNNY   93  70  46 S14G26    29.77F HX  99
IMPERIAL       MOSUNNY  101  57  23 SE7       29.76F HX 100
NORTH PLATTE   PTSUNNY   96  66  37 SE8       29.76F HX  99
MCCOOK         MOSUNNY  103  54  19 S13       29.71F HX 101

...EASTERN NEBRASKA...

CITY           SKY/WX    TMP DP  RH WIND       PRES   REMARKS
NORFOLK        MOSUNNY   89  76  65 SE18      29.78F HX 100
SO SIOUX CITY  SUNNY     88  72  58 S15G21    29.80S HX  94
TEKAMAH        MOSUNNY   91  74  57 SE18G28   29.80F HX 100
COLUMBUS       SUNNY     90  73  58 S15       29.80S HX  98
ALBION         MOSUNNY   89  72  56 S16G23    29.79F HX  95
OMAHA EPPLEY   PTSUNNY   90  74  59 SE22G30   29.81F HX  99
OFFUTT AFB     MOSUNNY   90  75  60 SE16      29.81F HX 100
MILLARD        SUNNY     89  76  65 SE16G22   29.81F HX 101
LINCOLN        SUNNY     92  73  53 S17G28    29.80F HX 100
NEBRASKA CITY  SUNNY     89  69  50 S17       29.84F HX  94
BEATRICE       SUNNY     91  74  56 S15G24    29.82S HX 101
FALLS CITY     MOSUNNY   91  73  55 S14G25    29.85S HX  99

...NORTHERN KANSAS...

CITY           SKY/WX    TMP DP  RH WIND       PRES   REMARKS
GOODLAND       MOSUNNY   97  51  21 S15G23    29.79F HX  94
HILL CITY      SUNNY    103  59  23 S22G35    29.75F HX 103
NORTON         CLEAR    100  50  18 S17G23    29.74S HX  97
PHILLIPSBURG   MOSUNNY  106  55  18 S18G26    29.73F HX 105
SMITH CENTER   MOSUNNY  100  61  27 S22G36    29.76S HX 101
HAYS           SUNNY    100  55  22 S23G31    29.79F HX  99
RUSSELL        LGT RAIN  99  59  26 S23G31    29.78F HX  99
CONCORDIA      SUNNY     97  66  36 S18G31    29.79F HX 100
SALINA         SUNNY    101  62  27 S20G28    29.80F HX 102
TOPEKA         MOSUNNY   91  73  55 S15       29.87F HX  99



USA.gov is the U.S. government's official web portal to all federal, state and local government web resources and services.